Вернуться в каталог

COSMOS 970 DEB

АктивенLEO
NORAD 10571·DEBRIS·🇷🇺 Russia

Запущен Dec 21, 1977 с Baikonur Cosmodrome

Loading…

Ближайшие Пролёты (ближайшие 24 часа)

TLE

СвежийSource: Space-Track

Эпоха: Sep 14, 2026, 04:58 UTC

1 10571U 77121N   26257.20718120  .00000386  00000-0  36428-3 0  9998
2 10571  65.9362 188.7953 0150628 293.5948  64.9366 13.87213755451668

Отслеживайте COSMOS 970 DEB в реальном времени с AllMySat

Download on the App Store